Weather History for Glen Ullin Rgnl, Glen Ullin,, ND

Change the Weather History Date:

Sunday, March 16, 2014

  Actual Average (KDIK) Record (KDIK)
Temperature  
Mean Temperature 30 °F 30 °F  
Max Temperature 46 °F 41 °F 78 °F (2012)
Min Temperature 14 °F 19 °F -17 °F (1906)
Degree Days  
Heating Degree Days 35 35  
Month to date heating degree days 608  
Since 1 July heating degree days 6902  
Cooling Degree Days 0 0  
Month to date cooling degree days 0  
Year to date cooling degree days 0  
Moisture  
Dew Point 25 °F    
Average Humidity 78    
Maximum Humidity 93    
Minimum Humidity 66    
Precipitation  
Precipitation 0.00 in 0.02 in 0.20 in (1995)
Month to date precipitation 0.29  
Year to date precipitation 0.92  
Sea Level Pressure  
Sea Level Pressure 29.96 in    
Wind  
Wind Speed 10 mph (SSW)    
Max Wind Speed 23 mph    
Max Gust Speed 31 mph    
Visibility 10 miles    
Events      
T = Trace of Precipitation, MM = Missing Value Source: NWS Daily Summary

Daily Weather History Graph

Daily Weather History Graph

Search for Another Location

Airport:

Trip Planner

Search our weather history database for the weather conditions in past years. The results will help you decide how hot, cold, wet, or windy it might be!

Date:

Astronomy

Mar. 16, 2014 Rise Set
Actual Time 6:58 AM MDT 6:54 PM MDT
Civil Twilight 6:28 AM MDT 7:24 PM MDT
Nautical Twilight 5:52 AM MDT 8:00 PM MDT
Astronomical Twilight 5:16 AM MDT 8:36 PM MDT
Moon 7:17 PM MDT (3/16) 6:41 AM MDT (3/16)
Length of Visible Light 12h 56m
Length of Day
11h 56m
Full, 100% of the Moon is Illuminated
Mar 16
Full
Mar 23
Last Quarter
Mar 30
New
Apr 7
First Quarter
Apr 15
Full

Hourly Weather History & Observations

Time (MDT) Temp. Windchill Dew Point Humidity Pressure Visibility Wind Dir Wind Speed Gust Speed Precip Events Conditions
12:15 AM 21.2 °F 12.6 °F 14.0 °F 74% 30.35 in 10.0 mi South 6.9 mph - N/A   Overcast
12:35 AM 21.2 °F 13.6 °F 14.0 °F 74% 30.35 in 10.0 mi South 5.8 mph - N/A   Overcast
12:55 AM 21.2 °F 12.6 °F 14.0 °F 74% 30.34 in 10.0 mi South 6.9 mph - N/A   Overcast
1:15 AM 21.2 °F 13.6 °F 14.0 °F 74% 30.33 in 10.0 mi South 5.8 mph 12.7 mph N/A   Overcast
1:35 AM 19.4 °F 9.5 °F 14.0 °F 80% 30.33 in 10.0 mi SSW 8.1 mph - N/A   Overcast
1:55 AM 17.6 °F 12.3 °F 12.2 °F 79% 30.32 in 10.0 mi South 3.5 mph - N/A   Partly Cloudy
2:15 AM 17.6 °F 6.4 °F 12.2 °F 79% 30.30 in 10.0 mi South 9.2 mph - N/A   Clear
2:35 AM 17.6 °F 4.3 °F 10.4 °F 73% 30.29 in 10.0 mi South 12.7 mph - N/A   Clear
2:55 AM 15.8 °F 2.1 °F 10.4 °F 79% 30.29 in 10.0 mi South 12.7 mph - N/A   Clear
3:15 AM 14.0 °F 1.2 °F 8.6 °F 79% 30.29 in 10.0 mi South 10.4 mph - N/A   Clear
3:35 AM 14.0 °F 2.0 °F 8.6 °F 79% 30.28 in 10.0 mi SSE 9.2 mph - N/A   Clear
3:55 AM 14.0 °F 2.0 °F 10.4 °F 86% 30.27 in 10.0 mi SSE 9.2 mph - N/A   Clear
4:15 AM 14.0 °F 3.9 °F 10.4 °F 86% 30.27 in 10.0 mi South 6.9 mph - N/A   Scattered Clouds
4:35 AM 15.8 °F 6.1 °F 12.2 °F 86% 30.26 in 10.0 mi South 6.9 mph - N/A   Overcast
4:55 AM 17.6 °F 5.0 °F 15.8 °F 93% 30.26 in 10.0 mi South 11.5 mph - N/A   Overcast
5:15 AM 17.6 °F 3.7 °F 15.8 °F 93% 30.24 in 10.0 mi South 13.8 mph - N/A   Overcast
5:35 AM 17.6 °F 5.0 °F 15.8 °F 93% 30.24 in 10.0 mi South 11.5 mph 18.4 mph N/A   Overcast
5:55 AM 19.4 °F 7.2 °F 15.8 °F 86% 30.23 in 10.0 mi South 11.5 mph - N/A   Overcast
6:15 AM 19.4 °F 7.2 °F 17.6 °F 93% 30.21 in 10.0 mi South 11.5 mph - N/A   Overcast
6:35 AM 19.4 °F 6.6 °F 17.6 °F 93% 30.21 in 10.0 mi South 12.7 mph - N/A   Overcast
6:55 AM 19.4 °F 6.0 °F 17.6 °F 93% 30.19 in 10.0 mi South 13.8 mph - N/A   Overcast
7:15 AM 21.2 °F 8.9 °F 17.6 °F 86% 30.18 in 10.0 mi South 12.7 mph - N/A   Overcast
7:35 AM 21.2 °F 8.9 °F 19.4 °F 93% 30.18 in 10.0 mi South 12.7 mph - N/A   Overcast
7:55 AM 23.0 °F 10.1 °F 19.4 °F 86% 30.15 in 10.0 mi South 15.0 mph - N/A   Overcast
8:15 AM 23.0 °F 10.6 °F 19.4 °F 86% 30.14 in 10.0 mi South 13.8 mph - N/A   Overcast
8:35 AM 23.0 °F 10.1 °F 19.4 °F 86% 30.11 in 10.0 mi South 15.0 mph - N/A   Overcast
8:55 AM 24.8 °F 12.9 °F 21.2 °F 86% 30.09 in 10.0 mi South 13.8 mph - N/A   Overcast
9:15 AM 24.8 °F 12.9 °F 21.2 °F 86% 30.09 in 10.0 mi South 13.8 mph - N/A   Overcast
9:35 AM 26.6 °F 13.8 °F 21.2 °F 80% 30.07 in 10.0 mi South 17.3 mph 23.0 mph N/A   Overcast
9:55 AM 26.6 °F 15.2 °F 23.0 °F 86% 30.05 in 10.0 mi South 13.8 mph - N/A   Overcast
10:15 AM 28.4 °F 16.2 °F 23.0 °F 80% 30.03 in 10.0 mi South 17.3 mph 25.3 mph N/A   Scattered Clouds
10:35 AM 28.4 °F 15.1 °F 23.0 °F 80% 30.03 in 10.0 mi South 20.7 mph 28.8 mph N/A   Partly Cloudy
10:55 AM 28.4 °F 15.1 °F 23.0 °F 80% 30.03 in 10.0 mi South 20.7 mph 28.8 mph N/A   Scattered Clouds
11:15 AM 30.2 °F 18.9 °F 24.8 °F 80% 30.02 in 10.0 mi South 16.1 mph 23.0 mph N/A   Mostly Cloudy
11:35 AM 32.0 °F 19.5 °F 24.8 °F 75% 30.00 in 10.0 mi South 21.9 mph 28.8 mph N/A   Mostly Cloudy
11:55 AM 32.0 °F 20.8 °F 26.6 °F 80% 29.99 in 10.0 mi South 17.3 mph 24.2 mph N/A   Scattered Clouds
12:15 PM 32.0 °F 22.1 °F 26.6 °F 80% 29.97 in 10.0 mi South 13.8 mph 21.9 mph N/A   Scattered Clouds
12:35 PM 33.8 °F 25.3 °F 28.4 °F 81% 29.95 in 10.0 mi South 11.5 mph 20.7 mph N/A   Mostly Cloudy
12:55 PM 35.6 °F 24.5 °F 28.4 °F 75% 29.92 in 10.0 mi South 20.7 mph 27.6 mph N/A   Overcast
1:15 PM 35.6 °F 24.2 °F 28.4 °F 75% 29.91 in 10.0 mi SSW 21.9 mph 28.8 mph N/A   Overcast
1:35 PM 37.4 °F 27.5 °F 30.2 °F 75% 29.87 in 10.0 mi SSW 18.4 mph 25.3 mph N/A   Overcast
1:55 PM 39.2 °F 30.5 °F 32.0 °F 75% 29.87 in 10.0 mi SSW 16.1 mph 26.5 mph N/A   Overcast
2:15 PM 39.2 °F 30.5 °F 32.0 °F 75% 29.83 in 10.0 mi South 16.1 mph 23.0 mph N/A   Overcast
2:35 PM 41.0 °F 33.9 °F 33.8 °F 76% 29.81 in 10.0 mi South 12.7 mph 18.4 mph N/A   Mostly Cloudy
2:55 PM 42.8 °F 34.8 °F 33.8 °F 70% 29.79 in 10.0 mi SSW 17.3 mph 23.0 mph N/A   Scattered Clouds
3:15 PM 44.6 °F 36.4 °F 35.6 °F 71% 29.76 in 10.0 mi SSW 20.7 mph 28.8 mph N/A   Partly Cloudy
3:35 PM 44.6 °F 35.9 °F 35.6 °F 71% 29.75 in 10.0 mi SSW 23.0 mph 31.1 mph N/A   Scattered Clouds
3:55 PM 44.6 °F 36.9 °F 35.6 °F 71% 29.74 in 10.0 mi SSW 18.4 mph 27.6 mph N/A   Partly Cloudy
4:15 PM 46.4 °F 38.5 °F 35.6 °F 66% 29.73 in 10.0 mi SSW 21.9 mph - N/A   Clear
4:35 PM 46.4 °F 39.2 °F 35.6 °F 66% 29.72 in 10.0 mi South 18.4 mph 25.3 mph N/A   Clear
4:55 PM 44.6 °F 37.8 °F 35.6 °F 71% 29.72 in 10.0 mi SSW 15.0 mph 25.3 mph N/A   Clear
5:15 PM 46.4 °F 39.8 °F 37.4 °F 71% 29.71 in 10.0 mi SSW 16.1 mph - N/A   Clear
5:35 PM 46.4 °F 40.4 °F 37.4 °F 71% 29.71 in 10.0 mi SSW 13.8 mph 20.7 mph N/A   Clear
5:55 PM 46.4 °F 41.5 °F 37.4 °F 71% 29.70 in 10.0 mi SSW 10.4 mph 18.4 mph N/A   Clear
6:15 PM 46.4 °F - 37.4 °F 71% 29.70 in 10.0 mi Calm Calm 16.1 mph N/A   Clear
6:35 PM 44.6 °F - 37.4 °F 76% 29.70 in 10.0 mi Calm Calm - N/A   Partly Cloudy
6:55 PM 44.6 °F 41.4 °F 35.6 °F 71% 29.68 in 10.0 mi South 5.8 mph - N/A   Mostly Cloudy
7:15 PM 41.0 °F - 35.6 °F 81% 29.67 in 10.0 mi Calm Calm - N/A   Overcast
7:35 PM 41.0 °F - 35.6 °F 81% 29.67 in 10.0 mi Calm Calm - N/A   Overcast
7:55 PM 41.0 °F - 33.8 °F 76% 29.66 in 10.0 mi Calm Calm - N/A   Overcast
8:15 PM 41.0 °F 39.0 °F 33.8 °F 76% 29.65 in 10.0 mi SSE 3.5 mph - N/A   Overcast
8:35 PM 41.0 °F - 33.8 °F 76% 29.65 in 10.0 mi Calm Calm - N/A   Overcast
8:55 PM 41.0 °F - 33.8 °F 76% 29.64 in 10.0 mi Calm Calm - N/A   Overcast
9:15 PM 41.0 °F - 33.8 °F 76% 29.63 in 10.0 mi Calm Calm - N/A   Overcast
9:35 PM 42.8 °F 38.6 °F 32.0 °F 66% 29.63 in 10.0 mi West 6.9 mph - N/A   Overcast
9:55 PM 41.0 °F 35.8 °F 32.0 °F 70% 29.61 in 10.0 mi WSW 8.1 mph - N/A   Overcast
10:15 PM 41.0 °F 35.2 °F 32.0 °F 70% 29.61 in 10.0 mi West 9.2 mph - N/A   Overcast
10:35 PM 39.2 °F 34.2 °F 32.0 °F 75% 29.61 in 10.0 mi WNW 6.9 mph - N/A   Overcast
10:55 PM 41.0 °F 36.4 °F 32.0 °F 70% 29.61 in 10.0 mi WNW 6.9 mph - N/A   Mostly Cloudy
11:15 PM 41.0 °F 37.1 °F 32.0 °F 70% 29.61 in 10.0 mi WNW 5.8 mph - N/A   Overcast
11:35 PM 39.2 °F 35.0 °F 32.0 °F 75% 29.61 in 10.0 mi NW 5.8 mph - N/A   Mostly Cloudy
11:55 PM 39.2 °F - 32.0 °F 75% 29.60 in 10.0 mi Calm Calm - N/A   Overcast